Weather History for Papa, Hungary

Change the Weather History Date:

Tuesday, May 7, 2013

  Actual Average Record
Temperature  
Mean Temperature 66 °F -  
Max Temperature 73 °F - - ()
Min Temperature 59 °F - - ()
Cooling Degree Days 1    
Growing Degree Days 16 (Base 50)    
Moisture  
Dew Point 58 °F    
Average Humidity 78    
Maximum Humidity 94    
Minimum Humidity 60    
Precipitation  
Precipitation 0.00 in - - ()
Sea Level Pressure  
Sea Level Pressure 29.99 in    
Wind  
Wind Speed 6 mph ()    
Max Wind Speed 16 mph    
Max Gust Speed -    
Visibility 6.0 miles    
Events Rain    
T = Trace of Precipitation, MM = Missing Value Source: Averaged Metar Reports

Daily Weather History Graph

Daily Weather History Graph

Search for Another Location

Airport:

Trip Planner

Search our weather history database for the weather conditions in past years. The results will help you decide how hot, cold, wet, or windy it might be!

Date:

Astronomy

May. 07, 2013 Rise Set
Actual Time 5:24 AM CEST 8:09 PM CEST
Civil Twilight 4:49 AM CEST 8:44 PM CEST
Nautical Twilight 4:04 AM CEST 9:29 PM CEST
Astronomical Twilight 3:12 AM CEST 10:22 PM CEST
Moon 3:59 AM CEST (5/7) 5:43 PM CEST (5/7)
Length of Visible Light 15h 55m
Length of Day
14h 45m
Waning Crescent, 7% of the Moon is Illuminated
May 7
Waning Crescent
May 10
New
May 18
First Quarter
May 25
Full
May 31
Last Quarter

Hourly Weather History & Observations

Time (CEST) Temp. Dew Point Humidity Pressure Visibility Wind Dir Wind Speed Gust Speed Precip Events Conditions
12:15 AM 66.2 °F 59.0 °F 78% 29.98 in - East 8.9 mph - N/A   Clear
12:45 AM 66.2 °F 59.0 °F 78% 30.01 in - East 4.5 mph - N/A   Clear
1:15 AM 64.4 °F 59.0 °F 83% 30.01 in - East 2.2 mph - N/A   Clear
1:45 AM 64.4 °F 57.2 °F 77% 30.01 in - SE 8.9 mph - N/A   Clear
2:15 AM 64.4 °F 55.4 °F 73% 30.01 in - SSE 8.9 mph - N/A   Clear
2:45 AM 62.6 °F 55.4 °F 77% 30.01 in - SE 4.5 mph - N/A   Clear
3:15 AM 60.8 °F 55.4 °F 82% 30.01 in - ESE 2.2 mph - N/A   Clear
3:45 AM - - N/A% - 5.0 mi ESE 4.5 mph - N/A Rain Rain Showers
4:15 AM 59.0 °F 55.4 °F 88% 29.98 in - West 2.2 mph - N/A   Clear
4:45 AM 59.0 °F 55.4 °F 88% 29.98 in - North 2.2 mph - N/A   Clear
5:15 AM 60.8 °F 55.4 °F 82% 29.98 in - NNE 6.7 mph - N/A   Clear
5:45 AM 60.8 °F 55.4 °F 82% 29.98 in - NNE 4.5 mph - N/A   Clear
6:15 AM 60.8 °F 55.4 °F 82% 29.98 in - ENE 6.7 mph - N/A   Clear
6:45 AM - - N/A% - 6.2 mi East 6.7 mph - N/A Rain Rain Showers
7:15 AM 62.6 °F 57.2 °F 82% 30.01 in - NE 4.5 mph - N/A   Clear
7:45 AM 62.6 °F 57.2 °F 82% 30.01 in - NNE 4.5 mph - N/A   Clear
8:15 AM 64.4 °F 57.2 °F 77% 30.01 in - ENE 4.5 mph - N/A   Clear
8:45 AM 66.2 °F 57.2 °F 73% 30.01 in - ENE 6.7 mph - N/A   Clear
9:15 AM 68.0 °F 57.2 °F 68% 30.01 in 6.2 mi NE 6.7 mph - N/A   Mostly Cloudy
9:45 AM - - N/A% - 6.2 mi East 8.9 mph - N/A   Mostly Cloudy
10:15 AM 68.0 °F 57.2 °F 68% 30.01 in 6.2 mi SE 8.9 mph - N/A   Mostly Cloudy
10:45 AM 68.0 °F 59.0 °F 73% 30.01 in 6.2 mi SSE 8.9 mph - N/A   Mostly Cloudy
11:15 AM 69.8 °F 59.0 °F 68% 30.01 in 6.2 mi SE 6.7 mph - N/A   Mostly Cloudy
11:45 AM 69.8 °F 59.0 °F 68% 30.01 in 6.2 mi ESE 8.9 mph - N/A   Scattered Clouds
12:15 PM 69.8 °F 59.0 °F 68% 30.01 in 6.2 mi ESE 13.4 mph - N/A   Scattered Clouds
12:45 PM - - N/A% - 6.2 mi ESE 11.2 mph - N/A   Mostly Cloudy
1:15 PM 71.6 °F 57.2 °F 60% 30.01 in 6.2 mi ESE 15.7 mph - N/A   Mostly Cloudy
1:45 PM 73.4 °F 59.0 °F 61% 30.01 in 6.2 mi ESE 15.7 mph - N/A   Mostly Cloudy
2:15 PM 71.6 °F 57.2 °F 60% 30.01 in 6.2 mi SE 13.4 mph - N/A   Mostly Cloudy
2:38 PM 71.6 °F 59.0 °F 64% 30.01 in 6.2 mi SE 11.2 mph - N/A Rain Light Rain Showers
2:45 PM 71.6 °F 59.0 °F 64% 29.98 in 6.2 mi ESE 8.9 mph - N/A Rain Light Rain Showers
3:15 PM 69.8 °F 62.6 °F 78% 29.98 in 6.2 mi East 8.9 mph - N/A Rain Rain Showers
3:21 PM 68.0 °F 62.6 °F 83% 29.98 in 1.9 mi ENE 11.2 mph - N/A Rain Rain Showers
3:32 PM 64.4 °F 60.8 °F 88% 30.01 in 6.2 mi ESE 11.2 mph - N/A Rain Light Rain Showers
3:45 PM - - N/A% - 6.2 mi ESE 6.7 mph - N/A   Mostly Cloudy
3:57 PM 64.4 °F 60.8 °F 88% 29.98 in 6.2 mi East 4.5 mph - N/A   Mostly Cloudy
4:15 PM 66.2 °F 62.6 °F 88% 29.98 in 6.2 mi NE 4.5 mph - N/A   Mostly Cloudy
4:45 PM 66.2 °F 62.6 °F 88% 29.98 in 6.2 mi ENE 4.5 mph - N/A   Mostly Cloudy
5:15 PM 68.0 °F 60.8 °F 78% 29.98 in 6.2 mi East 4.5 mph - N/A   Mostly Cloudy
5:45 PM 68.0 °F 60.8 °F 78% 29.98 in 6.2 mi East 4.5 mph - N/A   Mostly Cloudy
6:15 PM 69.8 °F 59.0 °F 68% 29.95 in 6.2 mi East 4.5 mph - N/A   Mostly Cloudy
6:45 PM - - N/A% - 6.2 mi East 6.7 mph - N/A   Mostly Cloudy
7:15 PM 68.0 °F 59.0 °F 73% 29.98 in 6.2 mi ESE 6.7 mph - N/A   Mostly Cloudy
7:45 PM 66.2 °F 59.0 °F 78% 29.98 in 6.2 mi NE 4.5 mph - N/A   Mostly Cloudy
8:15 PM 66.2 °F 59.0 °F 78% 29.98 in 6.2 mi East 6.7 mph - N/A   Mostly Cloudy
8:45 PM 64.4 °F 59.0 °F 83% 29.98 in 6.2 mi ENE 4.5 mph - N/A   Mostly Cloudy
9:15 PM 64.4 °F 59.0 °F 83% 29.98 in 6.2 mi North 2.2 mph - N/A   Mostly Cloudy
9:45 PM - - N/A% - 6.2 mi Variable 4.5 mph - N/A   Mostly Cloudy
10:15 PM 62.6 °F 59.0 °F 88% 29.98 in 6.2 mi NE 2.2 mph - N/A   Mostly Cloudy
10:45 PM 60.8 °F 59.0 °F 94% 29.98 in - NE 4.5 mph - N/A   Clear
11:15 PM 62.6 °F 59.0 °F 88% 29.98 in - NE 6.7 mph - N/A   Clear
11:45 PM 60.8 °F 59.0 °F 94% 29.98 in - NE 4.5 mph - N/A   Clear